This is the latest recevied weather packets stored in our database for station/object YF9UAG-17. If no packets are shown the sender has not sent any weather packets the latest 10 day(s).
| Time | Temp. | Humidity | Pressure | Rain* | Wind** | Luminosity | Snow |
|---|---|---|---|---|---|---|---|
| 1777894880 | 30.56° C | 59% | 941 hPa | - | - | 0 W/m² | - |
| 1777893958 | 30.56° C | 59% | 941 hPa | - | - | 0 W/m² | - |
| 1777893036 | 30.56° C | 58% | 941 hPa | - | - | 0 W/m² | - |
| 1777892114 | 31.11° C | 58% | 941 hPa | - | - | 0 W/m² | - |
| 1777891192 | 31.11° C | 58% | 941 hPa | - | - | 0 W/m² | - |
| 1777890270 | 31.11° C | 58% | 941 hPa | - | - | 0 W/m² | - |
| 1777889348 | 31.11° C | 58% | 940 hPa | - | - | 0 W/m² | - |
| 1777888426 | 30.56° C | 58% | 940 hPa | - | - | 0 W/m² | - |
| 1777888130 | 31.11° C | 58% | 940 hPa | - | - | 0 W/m² | - |
| 1777887208 | 31.11° C | 58% | 940 hPa | - | - | 0 W/m² | - |
| 1777886287 | 31.67° C | 55% | 940 hPa | - | - | 0 W/m² | - |
| 1777885364 | 31.67° C | 57% | 940 hPa | - | - | 0 W/m² | - |
| 1777884442 | 31.67° C | 56% | 940 hPa | - | - | 0 W/m² | - |
| 1777883520 | 32.78° C | 56% | 939 hPa | - | - | 0 W/m² | - |
| 1777882598 | 33.33° C | 54% | 939 hPa | - | - | 0 W/m² | - |
| 1777881676 | 32.78° C | 57% | 939 hPa | - | - | 0 W/m² | - |
| 1777880754 | 32.78° C | 56% | 939 hPa | - | - | 0 W/m² | - |
| 1777879832 | 32.78° C | 56% | 939 hPa | - | - | 0 W/m² | - |
| 1777878910 | 32.78° C | 56% | 939 hPa | - | - | 0 W/m² | - |
| 1777877988 | 32.78° C | 55% | 940 hPa | - | - | 0 W/m² | - |
| 1777877066 | 32.78° C | 56% | 940 hPa | - | - | 0 W/m² | - |
| 1777876144 | 32.22° C | 56% | 940 hPa | - | - | 0 W/m² | - |
| 1777875222 | 32.22° C | 58% | 940 hPa | - | - | 0 W/m² | - |
| 1777874300 | 31.67° C | 58% | 941 hPa | - | - | 0 W/m² | - |
| 1777873378 | 31.67° C | 58% | 941 hPa | - | - | 0 W/m² | - |
* Rain since midnight (hover to see other rain measurements)
** Current wind speed in m/s (hover to see current wind gust speed)